Location: Lixville
(37.5770°N, 89.9118°W)
Time: 13:48:15
(UTC+00:00)

Courier 1B Rocket - Pass Details

Date: 07 November 2024
Orbit: 920 x 1201 km, 28.2° (Epoch: 02 December)

Event Time Altitude Azimuth Distance (km) Brightness Sun altitude
Rises 01:16:19 0° 245° (WSW) 3,553 8.9 -28.2°
Reaches altitude 10° 01:19:09 10° 236° (SW) 2,602 7.9 -28.7°
Enters shadow 01:24:11 33° 183° (S) 1,485 5.9 -29.7°
